Flugplatz Bohmte-Bad Essen (EDXD)

Hier findest Du alle Informationen zum Flugplatz Bohmte-Bad Essen (EDXD).

Informationen für Piloten zum Flugplatz Bohmte-Bad Essen

Hier findest Du alle relevanten Informationen, die Du als Pilot benötigst, um Bohmte-Bad Essen anzufliegen.

Flugplatz: Bohmte-Bad Essen ICAO-Code: EDXD
Frequenz Turm: 122,500 Mhz GAFOR Gebiet: 9
Frequenz Ground: 122,500 Mhz Mogas: ja
Platzrunde: S 700 ft Landegebühr: -
Platzhöhe: 148 ft Sunrise: 03:22 Uhr UTC
Pisten: 10/28 - 580 m x 30 m, GRAS Sunset: 19:42 Uhr UTC

Flugwetter am Flugplatz Bohmte-Bad Essen

Die METAR Information stammen aus EDDG (50.08 km entfernt).

METAR Code:
2024/06/24 22:50
EDDG 242250Z AUTO 05003KT 350V090 CAVOK 18/14 Q1019 NOSIG

Flugschulen am Flugplatz Bohmte-Bad Essen

Am Flugplatz Bohmte-Bad Essen gibt es leider keine Flugschule.

Benachbarte Flugplätze und Flugschulen

Es gibt 11 weitere Flugplätze in einem Umkreis von 50 km um den Flugplatz Bohmte-Bad Essen.

Jetzt anmelden

Passwort vergessen

Umfrage Archiv

Wie häufig haltet Ihr die Halbkreisflugregel ein?

Eher häufig!
36.4 %
Immer!
30.2 %
Hin und wieder!
17.1 %
Nie!
9.5 %
Eher selten!
6.9 %
Stimmen: 275 | Diskussion
Anzeige: Roland Aircraft
Statistik Alle Mitglieder

Aktuell sind 27 Besucher online, davon 2 Mitglieder und 25 Gäste.


Mitglieder online:
slintes  Schnickes 

Anzeige: EasyVFR